Time,TemperatureF,DewpointF,PressureIn,WindDirection,WindDirectionDegrees,WindSpeedMPH,WindSpeedGustMPH,Humidity,HourlyPrecipIn,Conditions,Clouds,dailyrainin,SoftwareType,DateUTC
2013-09-23 00:01:00,46.2,41.4,30.11,South,180,0.0,0.0,83,0.00,,,0.00,WUHU21623XXSP,2013-09-23 04:01:00,
2013-09-23 00:06:00,46.2,41.7,30.11,South,180,0.0,0.9,84,0.00,,,0.00,WUHU21623XXSP,2013-09-23 04:06:00,
2013-09-23 00:11:00,46.0,41.5,30.11,South,180,0.0,0.9,84,0.00,,,0.00,WUHU21623XXSP,2013-09-23 04:11:00,
2013-09-23 00:16:00,46.0,41.5,30.11,NE,45,0.0,0.0,84,0.00,,,0.00,WUHU21623XXSP,2013-09-23 04:16:00,
2013-09-23 00:21:00,45.9,41.3,30.11,NE,45,0.0,0.0,84,0.00,,,0.00,WUHU21623XXSP,2013-09-23 04:21:00,
2013-09-23 00:26:00,45.7,41.1,30.11,NE,45,0.0,0.0,84,0.00,,,0.00,WUHU21623XXSP,2013-09-23 04:26:00,
2013-09-23 00:31:00,45.7,41.1,30.11,NE,45,0.0,0.0,84,0.00,,,0.00,WUHU21623XXSP,2013-09-23 04:31:00,
2013-09-23 00:36:00,45.5,41.0,30.11,NNE,22,0.0,0.0,84,0.00,,,0.00,WUHU21623XXSP,2013-09-23 04:36:00,
2013-09-23 00:41:00,45.3,40.8,30.11,NNE,22,0.0,0.0,84,0.00,,,0.00,WUHU21623XXSP,2013-09-23 04:41:00,
2013-09-23 00:46:00,45.3,41.1,30.11,NE,45,0.0,0.0,85,0.00,,,0.00,WUHU21623XXSP,2013-09-23 04:46:00,
2013-09-23 00:51:00,45.1,40.9,30.11,NE,45,0.0,0.0,85,0.00,,,0.00,WUHU21623XXSP,2013-09-23 04:51:00,
2013-09-23 00:56:00,45.1,40.9,30.11,NNE,22,0.0,0.0,85,0.00,,,0.00,WUHU21623XXSP,2013-09-23 04:56:00,
2013-09-23 01:01:00,45.1,40.9,30.11,NE,45,0.0,0.0,85,0.00,,,0.00,WUHU21623XXSP,2013-09-23 05:01:00,
2013-09-23 01:06:00,45.1,40.9,30.11,NNE,22,0.0,0.0,85,0.00,,,0.00,WUHU21623XXSP,2013-09-23 05:06:00,
2013-09-23 01:11:00,45.0,40.7,30.11,NNE,22,0.0,0.0,85,0.00,,,0.00,WUHU21623XXSP,2013-09-23 05:11:00,
2013-09-23 01:16:00,45.0,40.7,30.11,South,180,0.0,0.0,85,0.00,,,0.00,WUHU21623XXSP,2013-09-23 05:16:00,
2013-09-23 01:21:00,45.0,40.7,30.11,NE,45,0.0,0.0,85,0.00,,,0.00,WUHU21623XXSP,2013-09-23 05:21:00,
2013-09-23 01:26:00,45.0,40.7,30.11,NE,45,0.0,0.0,85,0.00,,,0.00,WUHU21623XXSP,2013-09-23 05:26:00,
2013-09-23 01:31:00,45.0,40.7,30.11,NE,45,0.0,0.0,85,0.00,,,0.00,WUHU21623XXSP,2013-09-23 05:31:00,
2013-09-23 01:36:00,45.0,40.7,30.11,NE,45,0.0,0.0,85,0.00,,,0.00,WUHU21623XXSP,2013-09-23 05:36:00,
2013-09-23 01:41:00,45.0,40.7,30.11,NNE,22,0.0,0.0,85,0.00,,,0.00,WUHU21623XXSP,2013-09-23 05:41:00,
2013-09-23 01:47:00,45.0,40.7,30.11,NNE,22,0.0,0.0,85,0.00,,,0.00,WUHU21623XXSP,2013-09-23 05:47:00,
2013-09-23 01:52:00,44.8,40.5,30.11,NNE,22,0.0,0.0,85,0.00,,,0.00,WUHU21623XXSP,2013-09-23 05:52:00,
2013-09-23 01:57:00,44.8,40.5,30.11,NNE,22,0.0,0.0,85,0.00,,,0.00,WUHU21623XXSP,2013-09-23 05:57:00,
2013-09-23 02:02:00,44.8,40.5,30.11,NNE,22,0.0,0.0,85,0.00,,,0.00,WUHU21623XXSP,2013-09-23 06:02:00,
2013-09-23 02:07:00,44.8,40.5,30.11,NNE,22,0.0,0.0,85,0.00,,,0.00,WUHU21623XXSP,2013-09-23 06:07:00,
2013-09-23 02:12:00,44.8,40.5,30.11,NNE,22,0.0,0.0,85,0.00,,,0.00,WUHU21623XXSP,2013-09-23 06:12:00,
2013-09-23 02:17:00,44.8,40.5,30.11,NNE,22,0.0,0.0,85,0.00,,,0.00,WUHU21623XXSP,2013-09-23 06:17:00,
2013-09-23 02:22:00,44.6,40.4,30.12,NNE,22,0.0,0.0,85,0.00,,,0.00,WUHU21623XXSP,2013-09-23 06:22:00,
2013-09-23 02:27:00,44.6,40.4,30.12,NNE,22,0.0,0.0,85,0.00,,,0.00,WUHU21623XXSP,2013-09-23 06:27:00,
2013-09-23 02:32:00,44.6,40.4,30.12,NNE,22,0.0,0.0,85,0.00,,,0.00,WUHU21623XXSP,2013-09-23 06:32:00,
2013-09-23 02:37:00,44.4,40.2,30.12,NNE,22,0.0,0.0,85,0.00,,,0.00,WUHU21623XXSP,2013-09-23 06:37:00,
2013-09-23 02:42:00,44.4,40.2,30.12,NE,45,0.0,0.0,85,0.00,,,0.00,WUHU21623XXSP,2013-09-23 06:42:00,
2013-09-23 02:47:00,44.4,40.2,30.12,NE,45,0.0,0.0,85,0.00,,,0.00,WUHU21623XXSP,2013-09-23 06:47:00,
2013-09-23 02:52:00,44.4,40.2,30.12,NNE,22,0.0,0.0,85,0.00,,,0.00,WUHU21623XXSP,2013-09-23 06:52:00,
2013-09-23 02:57:00,44.4,40.2,30.12,North,0,0.0,0.0,85,0.00,,,0.00,WUHU21623XXSP,2013-09-23 06:57:00,
2013-09-23 03:02:00,44.4,40.2,30.12,NE,45,0.0,0.0,85,0.00,,,0.00,WUHU21623XXSP,2013-09-23 07:02:00,
2013-09-23 03:07:00,44.2,40.0,30.12,NNE,22,0.0,0.0,85,0.00,,,0.00,WUHU21623XXSP,2013-09-23 07:07:00,
2013-09-23 03:12:00,44.2,40.3,30.12,NNE,22,0.0,0.0,86,0.00,,,0.00,WUHU21623XXSP,2013-09-23 07:12:00,
2013-09-23 03:17:00,44.2,40.3,30.12,NNE,22,0.0,0.0,86,0.00,,,0.00,WUHU21623XXSP,2013-09-23 07:17:00,
2013-09-23 03:22:00,43.9,40.0,30.12,NNE,22,0.0,0.0,86,0.00,,,0.00,WUHU21623XXSP,2013-09-23 07:22:00,
2013-09-23 03:27:00,43.9,40.0,30.12,NNE,22,0.0,0.0,86,0.00,,,0.00,WUHU21623XXSP,2013-09-23 07:27:00,
2013-09-23 03:32:00,43.7,39.8,30.11,NNE,22,0.0,0.0,86,0.00,,,0.00,WUHU21623XXSP,2013-09-23 07:32:00,
2013-09-23 03:37:00,43.5,39.6,30.12,NNE,22,0.0,0.0,86,0.00,,,0.00,WUHU21623XXSP,2013-09-23 07:37:00,
2013-09-23 03:42:00,43.5,39.6,30.12,NNE,22,0.0,0.0,86,0.00,,,0.00,WUHU21623XXSP,2013-09-23 07:42:00,
2013-09-23 03:47:00,43.3,39.4,30.12,NNE,22,0.0,0.0,86,0.00,,,0.00,WUHU21623XXSP,2013-09-23 07:47:00,
2013-09-23 03:52:00,43.2,39.2,30.12,NE,45,0.0,0.0,86,0.00,,,0.00,WUHU21623XXSP,2013-09-23 07:52:00,
2013-09-23 03:57:00,43.2,39.2,30.12,NE,45,0.0,0.0,86,0.00,,,0.00,WUHU21623XXSP,2013-09-23 07:57:00,
2013-09-23 04:02:00,43.2,39.2,30.11,NE,45,0.0,0.0,86,0.00,,,0.00,WUHU21623XXSP,2013-09-23 08:02:00,
2013-09-23 04:07:00,43.0,39.1,30.12,NE,45,0.0,0.0,86,0.00,,,0.00,WUHU21623XXSP,2013-09-23 08:07:00,
2013-09-23 04:12:00,43.0,39.1,30.12,NE,45,0.0,0.0,86,0.00,,,0.00,WUHU21623XXSP,2013-09-23 08:12:00,
2013-09-23 04:17:00,43.0,39.1,30.12,NE,45,0.0,0.0,86,0.00,,,0.00,WUHU21623XXSP,2013-09-23 08:17:00,
2013-09-23 04:22:00,43.0,39.1,30.12,NE,45,0.0,0.0,86,0.00,,,0.00,WUHU21623XXSP,2013-09-23 08:22:00,
2013-09-23 04:27:00,42.6,39.0,30.12,NE,45,0.0,0.0,87,0.00,,,0.00,WUHU21623XXSP,2013-09-23 08:27:00,
2013-09-23 04:32:00,42.6,39.0,30.12,NE,45,0.0,0.0,87,0.00,,,0.00,WUHU21623XXSP,2013-09-23 08:32:00,
2013-09-23 04:37:00,42.6,39.0,30.13,NE,45,0.0,0.0,87,0.00,,,0.00,WUHU21623XXSP,2013-09-23 08:37:00,
2013-09-23 04:42:00,42.4,38.8,30.13,NE,45,0.0,0.0,87,0.00,,,0.00,WUHU21623XXSP,2013-09-23 08:42:00,
2013-09-23 04:47:00,42.4,38.8,30.13,NE,45,0.0,0.0,87,0.00,,,0.00,WUHU21623XXSP,2013-09-23 08:47:00,
2013-09-23 04:52:00,42.4,38.5,30.12,NE,45,0.0,0.0,86,0.00,,,0.00,WUHU21623XXSP,2013-09-23 08:52:00,
2013-09-23 04:57:00,42.4,38.5,30.13,NE,45,0.0,0.0,86,0.00,,,0.00,WUHU21623XXSP,2013-09-23 08:57:00,
2013-09-23 05:02:00,42.1,38.2,30.13,NE,45,0.0,0.0,86,0.00,,,0.00,WUHU21623XXSP,2013-09-23 09:02:00,
2013-09-23 05:07:00,42.1,38.5,30.13,NE,45,0.0,0.0,87,0.00,,,0.00,WUHU21623XXSP,2013-09-23 09:07:00,
2013-09-23 05:12:00,42.1,38.5,30.13,NE,45,0.0,0.0,87,0.00,,,0.00,WUHU21623XXSP,2013-09-23 09:12:00,
2013-09-23 05:17:00,42.1,38.5,30.13,NE,45,0.0,0.0,87,0.00,,,0.00,WUHU21623XXSP,2013-09-23 09:17:00,
2013-09-23 05:22:00,41.9,38.3,30.13,NE,45,0.0,0.0,87,0.00,,,0.00,WUHU21623XXSP,2013-09-23 09:22:00,
2013-09-23 05:27:00,41.9,38.3,30.12,NE,45,0.0,0.0,87,0.00,,,0.00,WUHU21623XXSP,2013-09-23 09:27:00,
2013-09-23 05:32:00,41.9,38.3,30.13,NE,45,0.0,0.0,87,0.00,,,0.00,WUHU21623XXSP,2013-09-23 09:32:00,
2013-09-23 05:37:00,41.7,38.1,30.12,NE,45,0.0,0.0,87,0.00,,,0.00,WUHU21623XXSP,2013-09-23 09:37:00,
2013-09-23 05:42:00,41.7,38.1,30.13,NE,45,0.0,0.0,87,0.00,,,0.00,WUHU21623XXSP,2013-09-23 09:42:00,
2013-09-23 05:47:00,41.5,37.9,30.13,NE,45,0.0,0.0,87,0.00,,,0.00,WUHU21623XXSP,2013-09-23 09:47:00,
2013-09-23 05:52:00,41.5,37.9,30.13,NE,45,0.0,0.0,87,0.00,,,0.00,WUHU21623XXSP,2013-09-23 09:52:00,
2013-09-23 05:57:00,41.5,37.9,30.13,NE,45,0.0,0.0,87,0.00,,,0.00,WUHU21623XXSP,2013-09-23 09:57:00,
2013-09-23 06:02:00,41.5,37.9,30.13,NE,45,0.0,0.0,87,0.00,,,0.00,WUHU21623XXSP,2013-09-23 10:02:00,
2013-09-23 06:07:00,41.5,37.9,30.13,NE,45,0.0,0.0,87,0.00,,,0.00,WUHU21623XXSP,2013-09-23 10:07:00,
2013-09-23 06:12:00,41.5,37.9,30.13,NE,45,0.0,0.0,87,0.00,,,0.00,WUHU21623XXSP,2013-09-23 10:12:00,
2013-09-23 06:17:00,41.5,37.9,30.14,NE,45,0.0,0.0,87,0.00,,,0.00,WUHU21623XXSP,2013-09-23 10:17:00,
2013-09-23 06:22:00,41.4,38.0,30.14,NE,45,0.0,0.0,88,0.00,,,0.00,WUHU21623XXSP,2013-09-23 10:22:00,
2013-09-23 06:27:00,41.4,38.0,30.14,NE,45,0.0,0.0,88,0.00,,,0.00,WUHU21623XXSP,2013-09-23 10:27:00,
2013-09-23 06:32:00,41.4,38.0,30.14,NE,45,0.0,0.0,88,0.00,,,0.00,WUHU21623XXSP,2013-09-23 10:32:00,
2013-09-23 06:37:00,41.4,38.0,30.14,NE,45,0.0,0.0,88,0.00,,,0.00,WUHU21623XXSP,2013-09-23 10:37:00,
2013-09-23 06:42:00,41.5,38.2,30.14,NE,45,0.0,0.0,88,0.00,,,0.00,WUHU21623XXSP,2013-09-23 10:42:00,
2013-09-23 06:47:00,41.4,38.0,30.14,NE,45,0.0,0.0,88,0.00,,,0.00,WUHU21623XXSP,2013-09-23 10:47:00,
2013-09-23 06:52:00,41.4,38.0,30.15,NE,45,0.0,0.0,88,0.00,,,0.00,WUHU21623XXSP,2013-09-23 10:52:00,
2013-09-23 06:57:00,41.4,38.0,30.14,NE,45,0.0,0.0,88,0.00,,,0.00,WUHU21623XXSP,2013-09-23 10:57:00,
2013-09-23 07:02:00,41.4,38.0,30.15,NE,45,0.0,0.0,88,0.00,,,0.00,WUHU21623XXSP,2013-09-23 11:02:00,
2013-09-23 07:07:00,41.4,38.0,30.15,NE,45,0.0,0.0,88,0.00,,,0.00,WUHU21623XXSP,2013-09-23 11:07:00,
2013-09-23 07:12:00,41.2,37.9,30.15,NE,45,0.0,0.0,88,0.00,,,0.00,WUHU21623XXSP,2013-09-23 11:12:00,
2013-09-23 07:17:00,41.2,37.9,30.16,NE,45,0.0,0.0,88,0.00,,,0.00,WUHU21623XXSP,2013-09-23 11:17:00,
2013-09-23 07:22:00,41.2,37.9,30.16,NE,45,0.0,0.0,88,0.00,,,0.00,WUHU21623XXSP,2013-09-23 11:22:00,
2013-09-23 07:27:00,41.2,37.9,30.16,NE,45,0.0,0.0,88,0.00,,,0.00,WUHU21623XXSP,2013-09-23 11:27:00,
2013-09-23 07:32:00,41.2,37.7,30.16,NE,45,0.0,0.0,88,0.00,,,0.00,WUHU21623XXSP,2013-09-23 11:32:00,
2013-09-23 07:37:00,41.0,37.7,30.16,NE,45,0.0,0.0,88,0.00,,,0.00,WUHU21623XXSP,2013-09-23 11:37:00,
2013-09-23 07:42:00,41.0,37.7,30.16,NE,45,0.0,0.0,88,0.00,,,0.00,WUHU21623XXSP,2013-09-23 11:42:00,
2013-09-23 07:47:00,41.0,37.7,30.16,NE,45,0.0,0.0,88,0.00,,,0.00,WUHU21623XXSP,2013-09-23 11:47:00,
2013-09-23 07:52:00,41.0,37.7,30.16,NE,45,0.0,0.0,88,0.00,,,0.00,WUHU21623XXSP,2013-09-23 11:52:00,
2013-09-23 07:57:00,41.2,37.9,30.16,NE,45,0.0,0.0,88,0.00,,,0.00,WUHU21623XXSP,2013-09-23 11:57:00,
2013-09-23 08:02:00,41.2,37.9,30.17,NE,45,0.0,0.0,88,0.00,,,0.00,WUHU21623XXSP,2013-09-23 12:02:00,
2013-09-23 08:07:00,41.2,37.9,30.17,NE,45,0.0,0.0,88,0.00,,,0.00,WUHU21623XXSP,2013-09-23 12:07:00,
2013-09-23 08:12:00,41.2,37.9,30.17,NE,45,0.0,0.0,88,0.00,,,0.00,WUHU21623XXSP,2013-09-23 12:12:00,
2013-09-23 08:17:00,41.4,38.0,30.18,NE,45,0.0,0.0,88,0.00,,,0.00,WUHU21623XXSP,2013-09-23 12:17:00,
2013-09-23 08:22:00,41.5,38.5,30.18,NE,45,0.0,0.0,89,0.00,,,0.00,WUHU21623XXSP,2013-09-23 12:22:00,
2013-09-23 08:27:00,41.7,38.7,30.19,NE,45,0.0,0.0,89,0.00,,,0.00,WUHU21623XXSP,2013-09-23 12:27:00,
2013-09-23 08:32:00,42.3,39.3,30.19,NE,45,0.0,0.0,89,0.00,,,0.00,WUHU21623XXSP,2013-09-23 12:32:00,
2013-09-23 08:37:00,42.4,39.4,30.19,South,180,0.0,0.0,89,0.00,,,0.00,WUHU21623XXSP,2013-09-23 12:37:00,
2013-09-23 08:42:00,42.8,39.8,30.19,South,180,0.0,0.0,89,0.00,,,0.00,WUHU21623XXSP,2013-09-23 12:42:00,
2013-09-23 08:47:00,43.2,40.2,30.19,South,180,0.0,0.0,89,0.00,,,0.00,WUHU21623XXSP,2013-09-23 12:47:00,
2013-09-23 08:52:00,43.5,40.5,30.19,South,180,0.0,0.0,89,0.00,,,0.00,WUHU21623XXSP,2013-09-23 12:52:00,
2013-09-23 08:57:00,43.9,41.2,30.19,South,180,0.0,0.0,90,0.00,,,0.00,WUHU21623XXSP,2013-09-23 12:57:00,
2013-09-23 09:02:00,44.4,41.4,30.19,South,180,0.0,0.0,89,0.00,,,0.00,WUHU21623XXSP,2013-09-23 13:02:00,
2013-09-23 09:07:00,44.8,41.8,30.19,South,180,0.0,0.0,89,0.00,,,0.00,WUHU21623XXSP,2013-09-23 13:07:00,
2013-09-23 09:12:00,45.1,42.4,30.20,South,180,0.0,0.0,90,0.00,,,0.00,WUHU21623XXSP,2013-09-23 13:12:00,
2013-09-23 09:17:00,45.5,42.5,30.20,South,180,0.0,0.0,89,0.00,,,0.00,WUHU21623XXSP,2013-09-23 13:17:00,
2013-09-23 09:22:00,46.0,42.7,30.20,South,180,0.0,0.0,89,0.00,,,0.00,WUHU21623XXSP,2013-09-23 13:22:00,
2013-09-23 09:27:00,46.2,43.5,30.20,South,180,0.0,0.0,90,0.00,,,0.00,WUHU21623XXSP,2013-09-23 13:27:00,
2013-09-23 09:32:00,46.9,43.9,30.19,South,180,0.0,0.0,89,0.00,,,0.00,WUHU21623XXSP,2013-09-23 13:32:00,
2013-09-23 09:37:00,47.5,44.5,30.20,South,180,0.0,0.0,89,0.00,,,0.00,WUHU21623XXSP,2013-09-23 13:37:00,
2013-09-23 09:42:00,47.7,44.6,30.20,South,180,0.0,0.0,89,0.00,,,0.00,WUHU21623XXSP,2013-09-23 13:42:00,
2013-09-23 09:47:00,48.0,45.0,30.19,South,180,0.0,0.0,89,0.00,,,0.00,WUHU21623XXSP,2013-09-23 13:47:00,
2013-09-23 09:52:00,48.6,45.3,30.20,NNE,22,0.0,0.0,89,0.00,,,0.00,WUHU21623XXSP,2013-09-23 13:52:00,
2013-09-23 09:57:00,48.9,45.8,30.20,NE,45,0.0,0.0,89,0.00,,,0.00,WUHU21623XXSP,2013-09-23 13:57:00,
2013-09-23 10:02:00,49.3,45.8,30.19,NE,45,0.0,0.0,88,0.00,,,0.00,WUHU21623XXSP,2013-09-23 14:02:00,
2013-09-23 10:07:00,49.6,46.0,30.19,NNE,22,0.0,0.0,88,0.00,,,0.00,WUHU21623XXSP,2013-09-23 14:07:00,
2013-09-23 10:12:00,49.8,46.3,30.19,NNE,22,2.5,2.5,88,0.00,,,0.00,WUHU21623XXSP,2013-09-23 14:12:00,
2013-09-23 10:17:00,50.0,46.2,30.19,NE,45,0.0,2.5,87,0.00,,,0.00,WUHU21623XXSP,2013-09-23 14:17:00,
2013-09-23 10:22:00,50.2,46.1,30.19,NE,45,5.6,5.6,86,0.00,,,0.00,WUHU21623XXSP,2013-09-23 14:22:00,
2013-09-23 10:27:00,50.4,46.1,30.20,South,180,0.0,5.6,86,0.00,,,0.00,WUHU21623XXSP,2013-09-23 14:27:00,
2013-09-23 10:32:00,50.7,46.3,30.20,NNE,22,0.0,0.0,85,0.00,,,0.00,WUHU21623XXSP,2013-09-23 14:32:00,
2013-09-23 10:37:00,51.1,46.4,30.20,SSE,157,0.0,0.0,84,0.00,,,0.00,WUHU21623XXSP,2013-09-23 14:37:00,
2013-09-23 10:42:00,51.4,46.7,30.20,South,180,0.0,4.7,84,0.00,,,0.00,WUHU21623XXSP,2013-09-23 14:42:00,
2013-09-23 10:47:00,52.0,47.0,30.19,South,180,0.0,4.9,83,0.00,,,0.00,WUHU21623XXSP,2013-09-23 14:47:00,
2013-09-23 10:52:00,52.3,47.1,30.20,South,180,0.0,4.9,82,0.00,,,0.00,WUHU21623XXSP,2013-09-23 14:52:00,
2013-09-23 10:57:00,52.7,46.7,30.20,South,180,0.0,0.0,82,0.00,,,0.00,WUHU21623XXSP,2013-09-23 14:57:00,
2013-09-23 11:02:00,53.2,47.3,30.20,NNE,22,0.0,5.8,80,0.00,,,0.00,WUHU21623XXSP,2013-09-23 15:02:00,
2013-09-23 11:07:00,53.4,47.1,30.20,NE,45,0.0,5.8,79,0.00,,,0.00,WUHU21623XXSP,2013-09-23 15:07:00,
2013-09-23 11:12:00,53.4,47.1,30.20,SSE,157,0.0,2.2,79,0.00,,,0.00,WUHU21623XXSP,2013-09-23 15:12:00,
2013-09-23 11:17:00,53.8,47.1,30.20,NNE,22,0.0,0.0,78,0.00,,,0.00,WUHU21623XXSP,2013-09-23 15:17:00,
2013-09-23 11:22:00,53.8,47.1,30.20,NE,45,0.0,0.0,78,0.00,,,0.00,WUHU21623XXSP,2013-09-23 15:22:00,
2013-09-23 11:27:00,53.8,46.7,30.20,NE,45,0.7,0.7,77,0.00,,,0.00,WUHU21623XXSP,2013-09-23 15:27:00,
2013-09-23 11:32:00,54.0,46.4,30.20,South,180,0.0,0.7,77,0.00,,,0.00,WUHU21623XXSP,2013-09-23 15:32:00,
2013-09-23 11:37:00,54.3,47.2,30.20,NNE,22,3.8,3.8,77,0.00,,,0.00,WUHU21623XXSP,2013-09-23 15:37:00,
2013-09-23 11:42:00,54.5,47.1,30.20,NE,45,0.0,3.8,76,0.00,,,0.00,WUHU21623XXSP,2013-09-23 15:42:00,
2013-09-23 11:47:00,54.7,47.2,30.20,NNE,22,0.0,0.0,76,0.00,,,0.00,WUHU21623XXSP,2013-09-23 15:47:00,
2013-09-23 11:52:00,54.9,47.0,30.20,SSE,157,0.0,0.0,75,0.00,,,0.00,WUHU21623XXSP,2013-09-23 15:52:00,
2013-09-23 11:57:00,54.9,46.9,30.20,SSE,157,0.0,0.0,75,0.00,,,0.00,WUHU21623XXSP,2013-09-23 15:57:00,
2013-09-23 12:02:00,54.9,47.0,30.20,NE,45,6.9,6.9,75,0.00,,,0.00,WUHU21623XXSP,2013-09-23 16:02:00,
2013-09-23 12:07:00,55.0,47.2,30.20,NNE,22,0.0,6.9,75,0.00,,,0.00,WUHU21623XXSP,2013-09-23 16:07:00,
2013-09-23 12:12:00,55.0,47.2,30.20,NE,45,0.0,0.0,75,0.00,,,0.00,WUHU21623XXSP,2013-09-23 16:12:00,
2013-09-23 12:17:00,55.0,46.7,30.20,NNE,22,0.0,0.0,73,0.00,,,0.00,WUHU21623XXSP,2013-09-23 16:17:00,
2013-09-23 12:22:00,55.0,46.5,30.20,South,180,0.0,1.3,73,0.00,,,0.00,WUHU21623XXSP,2013-09-23 16:22:00,
2013-09-23 12:27:00,55.2,46.7,30.20,South,180,0.0,1.3,73,0.00,,,0.00,WUHU21623XXSP,2013-09-23 16:27:00,
2013-09-23 12:32:00,55.2,46.7,30.19,South,180,4.9,4.9,73,0.00,,,0.00,WUHU21623XXSP,2013-09-23 16:32:00,
2013-09-23 12:37:00,55.0,46.2,30.20,South,180,4.9,4.9,72,0.00,,,0.00,WUHU21623XXSP,2013-09-23 16:37:00,
2013-09-23 12:42:00,55.0,46.2,30.19,NE,45,0.0,4.9,72,0.00,,,0.00,WUHU21623XXSP,2013-09-23 16:42:00,
2013-09-23 12:47:00,55.0,46.2,30.19,NNE,22,0.0,1.3,72,0.00,,,0.00,WUHU21623XXSP,2013-09-23 16:47:00,
2013-09-23 12:52:00,55.0,46.2,30.19,NNE,22,0.0,1.3,71,0.00,,,0.00,WUHU21623XXSP,2013-09-23 16:52:00,
2013-09-23 12:57:00,55.2,46.0,30.19,NE,45,0.0,0.0,71,0.00,,,0.00,WUHU21623XXSP,2013-09-23 16:57:00,
2013-09-23 13:02:00,55.2,46.0,30.19,NE,45,0.0,0.0,71,0.00,,,0.00,WUHU21623XXSP,2013-09-23 17:02:00,
2013-09-23 13:07:00,55.2,46.0,30.20,NE,45,2.0,2.0,71,0.00,,,0.00,WUHU21623XXSP,2013-09-23 17:07:00,
2013-09-23 13:12:00,55.6,46.4,30.19,SSE,157,0.0,2.0,71,0.00,,,0.00,WUHU21623XXSP,2013-09-23 17:12:00,
2013-09-23 13:17:00,55.4,45.9,30.19,NE,45,0.0,2.9,70,0.00,,,0.00,WUHU21623XXSP,2013-09-23 17:17:00,
2013-09-23 13:22:00,55.6,46.0,30.19,NE,45,1.3,2.9,70,0.00,,,0.00,WUHU21623XXSP,2013-09-23 17:22:00,
2013-09-23 13:27:00,55.8,46.2,30.19,NNW,337,1.6,1.6,70,0.00,,,0.00,WUHU21623XXSP,2013-09-23 17:27:00,
2013-09-23 13:32:00,55.9,46.3,30.19,NNE,22,2.0,5.4,70,0.00,,,0.00,WUHU21623XXSP,2013-09-23 17:32:00,
2013-09-23 13:37:00,55.9,46.3,30.19,NNE,22,0.0,5.4,70,0.00,,,0.00,WUHU21623XXSP,2013-09-23 17:37:00,
2013-09-23 13:42:00,55.9,46.3,30.19,NNE,22,2.9,2.9,70,0.00,,,0.00,WUHU21623XXSP,2013-09-23 17:42:00,
2013-09-23 13:47:00,56.3,46.7,30.19,NNE,22,2.2,2.9,70,0.00,,,0.00,WUHU21623XXSP,2013-09-23 17:47:00,
2013-09-23 13:52:00,56.3,46.3,30.19,NNE,22,0.0,2.9,69,0.00,,,0.00,WUHU21623XXSP,2013-09-23 17:52:00,
2013-09-23 13:57:00,56.3,46.3,30.19,NE,45,0.0,0.0,69,0.00,,,0.00,WUHU21623XXSP,2013-09-23 17:57:00,
2013-09-23 14:02:00,56.5,46.0,30.19,NE,45,0.0,0.0,68,0.00,,,0.00,WUHU21623XXSP,2013-09-23 18:02:00,
2013-09-23 14:07:00,56.5,46.0,30.19,NE,45,1.6,1.6,68,0.00,,,0.00,WUHU21623XXSP,2013-09-23 18:07:00,
2013-09-23 14:12:00,56.5,46.0,30.19,NE,45,1.6,1.6,68,0.00,,,0.00,WUHU21623XXSP,2013-09-23 18:12:00,
2013-09-23 14:17:00,56.5,46.0,30.19,NNW,337,0.0,1.6,68,0.00,,,0.00,WUHU21623XXSP,2013-09-23 18:17:00,
2013-09-23 14:22:00,56.5,45.6,30.19,NNW,337,0.0,0.0,67,0.00,,,0.00,WUHU21623XXSP,2013-09-23 18:22:00,
2013-09-23 14:27:00,56.5,45.6,30.19,North,0,0.0,0.0,67,0.00,,,0.00,WUHU21623XXSP,2013-09-23 18:27:00,
2013-09-23 14:32:00,56.3,45.4,30.19,NNE,22,0.0,2.5,67,0.00,,,0.00,WUHU21623XXSP,2013-09-23 18:32:00,
2013-09-23 14:37:00,56.5,46.0,30.19,NNE,22,0.0,2.5,68,0.00,,,0.00,WUHU21623XXSP,2013-09-23 18:37:00,
2013-09-23 14:42:00,56.5,46.0,30.19,NNE,22,0.0,0.0,68,0.00,,,0.00,WUHU21623XXSP,2013-09-23 18:42:00,
2013-09-23 14:47:00,56.7,46.2,30.18,NNE,22,0.0,0.0,68,0.00,,,0.00,WUHU21623XXSP,2013-09-23 18:47:00,
2013-09-23 14:52:00,56.8,46.2,30.18,NNE,22,0.0,0.0,68,0.00,,,0.00,WUHU21623XXSP,2013-09-23 18:52:00,
2013-09-23 14:57:00,56.7,46.2,30.18,NNE,22,0.0,0.0,68,0.00,,,0.00,WUHU21623XXSP,2013-09-23 18:57:00,
2013-09-23 15:02:00,56.8,46.3,30.18,NE,45,0.0,0.0,67,0.00,,,0.00,WUHU21623XXSP,2013-09-23 19:02:00,
2013-09-23 15:07:00,56.8,46.0,30.18,South,180,2.0,2.0,67,0.00,,,0.00,WUHU21623XXSP,2013-09-23 19:07:00,
2013-09-23 15:12:00,56.8,46.0,30.18,SSE,157,0.0,2.0,67,0.00,,,0.00,WUHU21623XXSP,2013-09-23 19:12:00,
2013-09-23 15:17:00,56.5,46.0,30.17,South,180,0.7,0.9,67,0.00,,,0.00,WUHU21623XXSP,2013-09-23 19:17:00,
2013-09-23 15:22:00,56.5,45.2,30.17,North,0,0.0,0.9,67,0.00,,,0.00,WUHU21623XXSP,2013-09-23 19:22:00,
2013-09-23 15:27:00,56.7,45.6,30.17,North,0,0.0,0.0,67,0.00,,,0.00,WUHU21623XXSP,2013-09-23 19:27:00,
2013-09-23 15:32:00,56.8,46.0,30.17,NNE,22,3.4,4.0,67,0.00,,,0.00,WUHU21623XXSP,2013-09-23 19:32:00,
2013-09-23 15:37:00,56.8,46.0,30.17,NNE,22,7.4,7.4,67,0.00,,,0.00,WUHU21623XXSP,2013-09-23 19:37:00,
2013-09-23 15:42:00,56.8,46.0,30.17,NNW,337,1.8,7.4,67,0.00,,,0.00,WUHU21623XXSP,2013-09-23 19:42:00,
2013-09-23 15:47:00,56.7,45.6,30.16,NNW,337,3.6,3.6,67,0.00,,,0.00,WUHU21623XXSP,2013-09-23 19:47:00,
2013-09-23 15:52:00,56.5,45.6,30.16,NNE,22,0.0,3.6,67,0.00,,,0.00,WUHU21623XXSP,2013-09-23 19:52:00,
2013-09-23 15:57:00,56.3,45.6,30.16,NNE,22,0.0,0.0,66,0.00,,,0.00,WUHU21623XXSP,2013-09-23 19:57:00,
2013-09-23 16:02:00,56.3,45.0,30.16,South,180,0.0,0.0,66,0.00,,,0.00,WUHU21623XXSP,2013-09-23 20:02:00,
2013-09-23 16:07:00,56.3,45.0,30.16,NNE,22,6.9,6.9,66,0.00,,,0.00,WUHU21623XXSP,2013-09-23 20:07:00,
2013-09-23 16:12:00,56.5,45.6,30.16,SSE,157,6.7,6.9,67,0.00,,,0.00,WUHU21623XXSP,2013-09-23 20:12:00,
2013-09-23 16:17:00,56.5,45.6,30.16,NNE,22,0.0,6.7,67,0.00,,,0.00,WUHU21623XXSP,2013-09-23 20:17:00,
2013-09-23 16:22:00,56.5,45.6,30.16,NE,45,0.0,4.7,67,0.00,,,0.00,WUHU21623XXSP,2013-09-23 20:22:00,
2013-09-23 16:27:00,56.5,45.6,30.16,NE,45,0.0,0.0,67,0.00,,,0.00,WUHU21623XXSP,2013-09-23 20:27:00,
2013-09-23 16:32:00,56.5,45.6,30.16,NNE,22,0.0,1.1,67,0.00,,,0.00,WUHU21623XXSP,2013-09-23 20:32:00,
2013-09-23 16:37:00,56.5,45.4,30.16,NNE,22,0.0,1.1,67,0.00,,,0.00,WUHU21623XXSP,2013-09-23 20:37:00,
2013-09-23 16:42:00,56.3,45.4,30.16,NNW,337,2.9,2.9,67,0.00,,,0.00,WUHU21623XXSP,2013-09-23 20:42:00,
2013-09-23 16:47:00,56.3,45.4,30.16,NE,45,0.0,2.9,67,0.00,,,0.00,WUHU21623XXSP,2013-09-23 20:47:00,
2013-09-23 16:52:00,56.3,45.4,30.16,NE,45,0.0,0.0,67,0.00,,,0.00,WUHU21623XXSP,2013-09-23 20:52:00,
2013-09-23 16:57:00,56.1,45.3,30.16,NNE,22,0.0,0.0,67,0.00,,,0.00,WUHU21623XXSP,2013-09-23 20:57:00,
2013-09-23 17:02:00,56.1,45.3,30.16,NE,45,0.0,2.0,67,0.00,,,0.00,WUHU21623XXSP,2013-09-23 21:02:00,
2013-09-23 17:07:00,55.9,45.3,30.16,NNE,22,0.0,2.0,67,0.00,,,0.00,WUHU21623XXSP,2013-09-23 21:07:00,
2013-09-23 17:13:00,55.9,45.1,30.16,South,180,4.0,4.0,67,0.00,,,0.00,WUHU21623XXSP,2013-09-23 21:13:00,
2013-09-23 17:18:00,55.8,45.1,30.16,NE,45,4.7,4.7,67,0.00,,,0.00,WUHU21623XXSP,2013-09-23 21:18:00,
2013-09-23 17:23:00,55.8,45.4,30.16,NNE,22,0.0,4.7,68,0.00,,,0.00,WUHU21623XXSP,2013-09-23 21:23:00,
2013-09-23 17:28:00,55.8,45.4,30.16,NNE,22,0.0,0.0,68,0.00,,,0.00,WUHU21623XXSP,2013-09-23 21:28:00,
2013-09-23 17:33:00,55.8,45.4,30.16,NE,45,0.0,0.9,68,0.00,,,0.00,WUHU21623XXSP,2013-09-23 21:33:00,
2013-09-23 17:37:00,55.8,45.4,30.16,NE,45,0.7,0.9,68,0.00,,,0.00,WUHU21623XXSP,2013-09-23 21:37:00,
2013-09-23 17:43:00,55.6,45.2,30.16,NNE,22,0.0,0.7,68,0.00,,,0.00,WUHU21623XXSP,2013-09-23 21:43:00,
2013-09-23 17:48:00,55.6,45.2,30.16,NNE,22,1.8,1.8,68,0.00,,,0.00,WUHU21623XXSP,2013-09-23 21:48:00,
2013-09-23 17:53:00,55.6,45.2,30.16,NE,45,0.0,1.8,68,0.00,,,0.00,WUHU21623XXSP,2013-09-23 21:53:00,
2013-09-23 17:58:00,55.4,45.0,30.16,NNE,22,2.5,2.5,68,0.00,,,0.00,WUHU21623XXSP,2013-09-23 21:58:00,
2013-09-23 18:03:00,55.2,45.4,30.16,SSE,157,0.0,2.5,69,0.00,,,0.00,WUHU21623XXSP,2013-09-23 22:03:00,
2013-09-23 18:08:00,55.2,45.3,30.15,South,180,0.0,0.0,69,0.00,,,0.00,WUHU21623XXSP,2013-09-23 22:08:00,
2013-09-23 18:13:00,55.2,45.3,30.15,NNE,22,0.0,6.3,69,0.00,,,0.00,WUHU21623XXSP,2013-09-23 22:13:00,
2013-09-23 18:18:00,55.2,45.3,30.15,NNE,22,0.0,6.3,69,0.00,,,0.00,WUHU21623XXSP,2013-09-23 22:18:00,
2013-09-23 18:23:00,55.2,45.3,30.15,NNE,22,0.0,1.1,69,0.00,,,0.00,WUHU21623XXSP,2013-09-23 22:23:00,
2013-09-23 18:28:00,55.0,45.1,30.15,NE,45,0.0,0.0,69,0.00,,,0.00,WUHU21623XXSP,2013-09-23 22:28:00,
2013-09-23 18:33:00,55.0,45.1,30.15,NE,45,0.0,0.0,69,0.00,,,0.00,WUHU21623XXSP,2013-09-23 22:33:00,
2013-09-23 18:38:00,54.9,44.9,30.15,NE,45,0.0,6.3,69,0.00,,,0.00,WUHU21623XXSP,2013-09-23 22:38:00,
2013-09-23 18:43:00,54.7,44.9,30.15,South,180,0.0,6.3,70,0.00,,,0.00,WUHU21623XXSP,2013-09-23 22:43:00,
2013-09-23 18:48:00,54.7,45.1,30.15,NE,45,0.0,0.0,70,0.00,,,0.00,WUHU21623XXSP,2013-09-23 22:48:00,
2013-09-23 18:53:00,54.5,45.1,30.15,NE,45,0.0,0.0,70,0.00,,,0.00,WUHU21623XXSP,2013-09-23 22:53:00,
2013-09-23 18:58:00,54.3,45.1,30.15,NNE,22,0.0,0.0,71,0.00,,,0.00,WUHU21623XXSP,2013-09-23 22:58:00,
2013-09-23 19:03:00,54.3,45.1,30.15,NNE,22,0.0,0.0,71,0.00,,,0.00,WUHU21623XXSP,2013-09-23 23:03:00,
2013-09-23 19:08:00,54.3,45.1,30.15,NNE,22,0.0,0.0,71,0.00,,,0.00,WUHU21623XXSP,2013-09-23 23:08:00,
2013-09-23 19:13:00,54.1,44.9,30.15,NNE,22,0.0,0.0,71,0.00,,,0.00,WUHU21623XXSP,2013-09-23 23:13:00,
2013-09-23 19:18:00,54.0,44.8,30.15,NNE,22,0.0,0.0,71,0.00,,,0.00,WUHU21623XXSP,2013-09-23 23:18:00,
2013-09-23 19:23:00,53.8,44.9,30.15,NNE,22,0.0,0.0,72,0.00,,,0.00,WUHU21623XXSP,2013-09-23 23:23:00,
2013-09-23 19:28:00,53.6,44.8,30.15,NNE,22,0.0,0.0,72,0.00,,,0.00,WUHU21623XXSP,2013-09-23 23:28:00,
2013-09-23 19:33:00,53.4,45.0,30.15,NNE,22,0.0,0.0,73,0.00,,,0.00,WUHU21623XXSP,2013-09-23 23:33:00,
2013-09-23 19:38:00,53.2,44.8,30.15,North,0,0.0,0.0,73,0.00,,,0.00,WUHU21623XXSP,2013-09-23 23:38:00,
2013-09-23 19:43:00,52.9,44.5,30.14,North,0,0.0,0.0,73,0.00,,,0.00,WUHU21623XXSP,2013-09-23 23:43:00,
2013-09-23 19:48:00,52.9,44.5,30.14,North,0,0.0,0.0,73,0.00,,,0.00,WUHU21623XXSP,2013-09-23 23:48:00,
2013-09-23 19:53:00,52.5,44.7,30.14,North,0,0.0,0.0,74,0.00,,,0.00,WUHU21623XXSP,2013-09-23 23:53:00,
2013-09-23 19:58:00,52.2,44.5,30.14,North,0,0.0,0.0,75,0.00,,,0.00,WUHU21623XXSP,2013-09-23 23:58:00,
2013-09-23 20:03:00,52.0,44.3,30.14,North,0,0.0,0.0,75,0.00,,,0.00,WUHU21623XXSP,2013-09-24 00:03:00,
2013-09-23 20:08:00,51.6,44.3,30.14,North,0,0.0,0.0,76,0.00,,,0.00,WUHU21623XXSP,2013-09-24 00:08:00,
2013-09-23 20:13:00,51.3,44.1,30.14,North,0,0.0,0.0,76,0.00,,,0.00,WUHU21623XXSP,2013-09-24 00:13:00,
2013-09-23 20:18:00,51.1,44.1,30.14,North,0,0.0,0.0,77,0.00,,,0.00,WUHU21623XXSP,2013-09-24 00:18:00,
2013-09-23 20:23:00,50.7,43.8,30.14,North,0,0.0,0.0,77,0.00,,,0.00,WUHU21623XXSP,2013-09-24 00:23:00,
2013-09-23 20:28:00,50.5,43.6,30.14,North,0,0.0,0.0,78,0.00,,,0.00,WUHU21623XXSP,2013-09-24 00:28:00,
2013-09-23 20:33:00,50.4,43.7,30.14,North,0,0.0,0.0,78,0.00,,,0.00,WUHU21623XXSP,2013-09-24 00:33:00,
2013-09-23 20:38:00,49.8,43.2,30.14,North,0,0.0,0.0,78,0.00,,,0.00,WUHU21623XXSP,2013-09-24 00:38:00,
2013-09-23 20:43:00,49.8,43.2,30.15,North,0,0.0,0.0,78,0.00,,,0.00,WUHU21623XXSP,2013-09-24 00:43:00,
2013-09-23 20:48:00,49.6,43.0,30.14,North,0,0.0,0.0,78,0.00,,,0.00,WUHU21623XXSP,2013-09-24 00:48:00,
2013-09-23 20:53:00,49.3,43.0,30.15,North,0,0.0,0.0,79,0.00,,,0.00,WUHU21623XXSP,2013-09-24 00:53:00,
2013-09-23 20:58:00,49.3,43.0,30.15,North,0,0.0,0.0,79,0.00,,,0.00,WUHU21623XXSP,2013-09-24 00:58:00,
2013-09-23 21:03:00,49.1,43.0,30.15,North,0,0.0,0.0,80,0.00,,,0.00,WUHU21623XXSP,2013-09-24 01:03:00,
2013-09-23 21:08:00,49.1,43.2,30.15,North,0,0.0,0.0,80,0.00,,,0.00,WUHU21623XXSP,2013-09-24 01:08:00,
2013-09-23 21:13:00,48.9,43.0,30.15,North,0,0.0,0.0,80,0.00,,,0.00,WUHU21623XXSP,2013-09-24 01:13:00,
2013-09-23 21:18:00,48.9,43.0,30.15,North,0,0.0,0.0,80,0.00,,,0.00,WUHU21623XXSP,2013-09-24 01:18:00,
2013-09-23 21:23:00,48.7,42.8,30.15,North,0,0.0,0.0,81,0.00,,,0.00,WUHU21623XXSP,2013-09-24 01:23:00,
2013-09-23 21:28:00,48.7,43.1,30.15,North,0,0.0,0.0,81,0.00,,,0.00,WUHU21623XXSP,2013-09-24 01:28:00,
2013-09-23 21:33:00,48.6,42.9,30.15,North,0,0.0,0.0,81,0.00,,,0.00,WUHU21623XXSP,2013-09-24 01:33:00,
2013-09-23 21:38:00,48.4,42.7,30.15,North,0,0.0,0.0,81,0.00,,,0.00,WUHU21623XXSP,2013-09-24 01:38:00,
2013-09-23 21:43:00,48.4,42.7,30.15,North,0,0.0,0.0,81,0.00,,,0.00,WUHU21623XXSP,2013-09-24 01:43:00,
2013-09-23 21:48:00,48.2,42.9,30.14,North,0,0.0,0.0,82,0.00,,,0.00,WUHU21623XXSP,2013-09-24 01:48:00,
2013-09-23 21:53:00,48.0,42.7,30.15,North,0,0.0,0.0,82,0.00,,,0.00,WUHU21623XXSP,2013-09-24 01:53:00,
2013-09-23 21:58:00,48.0,42.7,30.15,North,0,0.0,0.0,82,0.00,,,0.00,WUHU21623XXSP,2013-09-24 01:58:00,
2013-09-23 22:03:00,48.0,42.7,30.15,North,0,0.0,0.0,82,0.00,,,0.00,WUHU21623XXSP,2013-09-24 02:03:00,
2013-09-23 22:08:00,47.8,42.6,30.15,North,0,0.0,0.0,82,0.00,,,0.00,WUHU21623XXSP,2013-09-24 02:08:00,
2013-09-23 22:13:00,47.8,42.6,30.15,North,0,0.0,0.0,82,0.00,,,0.00,WUHU21623XXSP,2013-09-24 02:13:00,
2013-09-23 22:18:00,47.8,42.9,30.15,North,0,0.0,0.0,83,0.00,,,0.00,WUHU21623XXSP,2013-09-24 02:18:00,
2013-09-23 22:23:00,47.7,42.7,30.15,North,0,0.0,0.0,83,0.00,,,0.00,WUHU21623XXSP,2013-09-24 02:23:00,
2013-09-23 22:28:00,47.5,42.5,30.15,North,0,0.0,0.0,83,0.00,,,0.00,WUHU21623XXSP,2013-09-24 02:28:00,
2013-09-23 22:33:00,47.5,42.5,30.15,North,0,0.0,0.0,83,0.00,,,0.00,WUHU21623XXSP,2013-09-24 02:33:00,
2013-09-23 22:38:00,47.3,42.4,30.15,North,0,0.0,0.0,83,0.00,,,0.00,WUHU21623XXSP,2013-09-24 02:38:00,
2013-09-23 22:43:00,47.3,42.4,30.15,North,0,0.0,0.0,83,0.00,,,0.00,WUHU21623XXSP,2013-09-24 02:43:00,
2013-09-23 22:48:00,47.1,42.2,30.15,North,0,0.0,0.0,83,0.00,,,0.00,WUHU21623XXSP,2013-09-24 02:48:00,
2013-09-23 22:53:00,47.1,42.2,30.15,North,0,0.0,0.0,83,0.00,,,0.00,WUHU21623XXSP,2013-09-24 02:53:00,
2013-09-23 22:58:00,47.1,42.2,30.15,North,0,0.0,0.0,83,0.00,,,0.00,WUHU21623XXSP,2013-09-24 02:58:00,
2013-09-23 23:03:00,46.9,42.4,30.15,North,0,0.0,0.0,84,0.00,,,0.00,WUHU21623XXSP,2013-09-24 03:03:00,
2013-09-23 23:08:00,46.8,42.2,30.15,North,0,0.0,0.0,84,0.00,,,0.00,WUHU21623XXSP,2013-09-24 03:08:00,
2013-09-23 23:13:00,46.8,42.2,30.15,North,0,0.0,0.0,84,0.00,,,0.00,WUHU21623XXSP,2013-09-24 03:13:00,
2013-09-23 23:18:00,46.6,42.0,30.15,North,0,0.0,0.0,84,0.00,,,0.00,WUHU21623XXSP,2013-09-24 03:18:00,
2013-09-23 23:23:00,46.6,42.0,30.15,North,0,0.0,0.0,84,0.00,,,0.00,WUHU21623XXSP,2013-09-24 03:23:00,
2013-09-23 23:28:00,46.4,41.9,30.15,North,0,0.0,0.0,84,0.00,,,0.00,WUHU21623XXSP,2013-09-24 03:28:00,
2013-09-23 23:33:00,46.2,41.7,30.15,North,0,0.0,0.0,84,0.00,,,0.00,WUHU21623XXSP,2013-09-24 03:33:00,
2013-09-23 23:38:00,46.2,41.7,30.15,North,0,0.0,0.0,84,0.00,,,0.00,WUHU21623XXSP,2013-09-24 03:38:00,
2013-09-23 23:43:00,46.2,42.0,30.15,North,0,0.0,0.0,85,0.00,,,0.00,WUHU21623XXSP,2013-09-24 03:43:00,
2013-09-23 23:48:00,46.0,41.8,30.15,North,0,0.0,0.0,85,0.00,,,0.00,WUHU21623XXSP,2013-09-24 03:48:00,
2013-09-23 23:53:00,46.0,41.8,30.15,North,0,0.0,0.0,85,0.00,,,0.00,WUHU21623XXSP,2013-09-24 03:53:00,
2013-09-23 23:58:00,45.9,41.6,30.15,North,0,0.0,0.0,85,0.00,,,0.00,WUHU21623XXSP,2013-09-24 03:58:00,